Location: Hylvaty SDH
(49.9612°N, 16.4057°E)
Time: 21:41:32
(UTC+02:00)

deb Explorer IX - Visible Passes

Search period start: 25 September 2020 00:00
Search period end: 05 October 2020 00:00
Orbit: 539 x 1105 km, 38.8° (Epoch: 24 September)

Date Brightness Start Highest point End Pass type
(mag) Time Alt. Az. Time Alt. Az. Time Alt. Az.
25 Sep ? 20:07:13 10° SSW 20:09:07 13° SSE 20:09:43 12° SSE visible
26 Sep ? 19:44:01 10° SSW 19:46:04 13° SSE 19:47:53 10° SE visible
26 Sep ? 21:29:07 10° SW 21:29:11 10° SW 21:29:11 10° SW visible
27 Sep ? 19:20:47 10° SSW 19:23:00 14° SSE 19:25:08 10° SE visible
27 Sep ? 21:06:01 10° SW 21:07:19 15° SSW 21:07:19 15° SSW visible
28 Sep ? 20:42:54 10° SW 20:45:25 18° S 20:45:25 18° S visible
29 Sep ? 20:19:44 10° SW 20:22:43 18° S 20:23:29 17° S visible
30 Sep ? 19:56:33 10° SW 19:59:40 19° S 20:01:33 14° SSE visible
01 Oct ? 19:33:20 10° SW 19:36:36 19° S 19:39:37 10° SE visible
01 Oct ? 21:20:51 10° SW 21:20:55 10° SW 21:20:55 10° SW visible
02 Oct ? 19:10:06 10° SW 19:13:31 20° S 19:16:42 10° SE visible
02 Oct ? 20:57:38 10° SW 20:59:00 12° SSW 20:59:00 12° SSW visible
03 Oct ? 20:34:23 10° SW 20:36:11 12° SSW 20:37:06 12° S visible
04 Oct ? 20:11:07 10° SW 20:13:06 13° SSW 20:15:01 10° S visible
